Find Starlink 36130

NORAD ID: 66931 Int'l Des: 2025-286 Owner: SPXS Country: US Constellation: starlink operational
LEOCIRCULAR

实时位置

正在加载3D地球...

关于 Starlink 36130

正在加载描述...

即将过境

Passes for default location (London). Set your location on the main map for personalized predictions.

高度历史

Loading altitude history...

两行轨道根数

1 66931U 25286G 26107.20090980 .00009410 00000-0 32934-3 0 9990
2 66931 53.1595 179.5252 0001264 95.1818 264.9327 15.30208320 21315
Epoch: Apr 17, 2026 • Age: 14 hours

当前状态

高度 482.2 km
速度 7.62 km/s
星下点 -22.87°S, 30.54°E
发射日期 Dec 7, 2025
运行时间 0.3 years
类型 internet

技术详情

分类 Payload
质量 575.00 kg
干质量 530.00 kg
总质量 575.00 kg
长度 0.30 m
直径 4.10 m
跨度 29.00 m
形状 Box + pan
制造商 SPXS
平台类型 Starlink V2MO
阶段状态 In Orbit
所有者/国家 SPXS/US

Most Searched